• Em Portugal
  • Lista de países
  • Para 7 dias
  • Temperatura da água
  • Mapas de satélite
  • Mapa do tempo
  • Widgets de tempo
  • user-avatar
    Iniciar Sessão

    Previsão horária em Marmaris

    Hoje, 19 Fevereiro, Segunda-feira

    Tempo Temperatura Precipitação Vento Pressão Humidade
    00:00 +11°C° 0 mm 3 m/s 756 mmHg 43%
    01:00 +12°C° 0 mm 2 m/s 756 mmHg 42%
    02:00 +10°C° 0 mm 2 m/s 755 mmHg 43%
    03:00 +12°C° 0 mm 2 m/s 755 mmHg 42%
    04:00 +12°C° 0 mm 2 m/s 755 mmHg 41%
    05:00 +12°C° 0 mm 2 m/s 755 mmHg 40%
    06:00 +12°C° 0 mm 1 m/s 755 mmHg 41%
    07:00 +13°C° 0 mm 1 m/s 755 mmHg 41%
    08:00 +13°C° 0 mm 1 m/s 755 mmHg 42%
    09:00 +15°C° 0 mm 1 m/s 755 mmHg 39%
    10:00 +18°C° 0 mm 1 m/s 755 mmHg 36%
    11:00 +20°C° 0 mm 1 m/s 755 mmHg 33%
    12:00 +20°C° 0 mm 1 m/s 755 mmHg 34%
    13:00 +19°C° 0 mm 2 m/s 755 mmHg 35%
    14:00 +19°C° 0 mm 2 m/s 755 mmHg 36%
    15:00 +18°C° 0 mm 2 m/s 755 mmHg 43%
    16:00 +18°C° 0 mm 1 m/s 755 mmHg 50%
    17:00 +18°C° 0 mm 1 m/s 755 mmHg 56%
    18:00 +15°C° 0 mm 1 m/s 755 mmHg 62%
    19:00 +14°C° 0 mm 1 m/s 755 mmHg 67%
    20:00 +13°C° 0 mm 1 m/s 755 mmHg 72%
    21:00 +13°C° 0 mm 1 m/s 755 mmHg 74%
    22:00 +12°C° 0 mm 1 m/s 756 mmHg 76%
    23:00 +12°C° 0 mm 1 m/s 756 mmHg 78%

    Amanhã, 20 Fevereiro, Terça-feira

    Tempo Temperatura Precipitação Vento Pressão Humidade
    00:00 +11°C° 0 mm 1 m/s 756 mmHg 79%
    01:00 +11°C° 0 mm 1 m/s 756 mmHg 80%
    02:00 +11°C° 0 mm 1 m/s 756 mmHg 81%
    03:00 +11°C° 0 mm 1 m/s 756 mmHg 81%
    04:00 +11°C° 0 mm 1 m/s 756 mmHg 82%
    05:00 +11°C° 0 mm 1 m/s 755 mmHg 82%
    06:00 +11°C° 0 mm 1 m/s 755 mmHg 80%
    07:00 +12°C° 0 mm 1 m/s 756 mmHg 78%
    08:00 +13°C° 0 mm 1 m/s 756 mmHg 77%
    09:00 +14°C° 0 mm 2 m/s 756 mmHg 69%
    10:00 +16°C° 0 mm 2 m/s 756 mmHg 62%
    11:00 +17°C° 0 mm 2 m/s 756 mmHg 55%
    12:00 +17°C° 0 mm 3 m/s 755 mmHg 56%
    13:00 +18°C° 0 mm 3 m/s 755 mmHg 56%
    14:00 +18°C° 0 mm 3 m/s 754 mmHg 57%
    15:00 +17°C° 0,2 mm 3 m/s 754 mmHg 63%
    16:00 +16°C° 0,2 mm 3 m/s 754 mmHg 70%
    17:00 +15°C° 0,2 mm 2 m/s 754 mmHg 76%
    18:00 +14°C° 0,1 mm 2 m/s 754 mmHg 82%
    19:00 +13°C° 0,1 mm 2 m/s 754 mmHg 87%
    20:00 +12°C° 0,1 mm 2 m/s 754 mmHg 93%
    21:00 +12°C° 0 mm 2 m/s 754 mmHg 92%
    22:00 +12°C° 0 mm 2 m/s 754 mmHg 91%
    23:00 +11°C° 0 mm 3 m/s 754 mmHg 91%

    Depois de amanhã, 21 Fevereiro, Quarta-feira

    Tempo Temperatura Precipitação Vento Pressão Humidade
    00:00 +11°C° 0,1 mm 3 m/s 754 mmHg 89%
    01:00 +11°C° 0,1 mm 3 m/s 754 mmHg 87%
    02:00 +11°C° 0,1 mm 3 m/s 754 mmHg 85%
    03:00 +10°C° 0,6 mm 3 m/s 753 mmHg 85%
    04:00 +10°C° 0,6 mm 3 m/s 753 mmHg 85%
    05:00 +10°C° 0,6 mm 3 m/s 753 mmHg 85%
    06:00 +11°C° 0,9 mm 3 m/s 753 mmHg 85%
    07:00 +11°C° 0,9 mm 3 m/s 753 mmHg 84%
    08:00 +11°C° 0,9 mm 3 m/s 753 mmHg 84%
    09:00 +12°C° 0,8 mm 3 m/s 753 mmHg 80%
    10:00 +13°C° 0,8 mm 3 m/s 753 mmHg 77%
    11:00 +14°C° 0,8 mm 4 m/s 753 mmHg 73%
    12:00 +14°C° 0,5 mm 4 m/s 753 mmHg 73%
    13:00 +15°C° 0,5 mm 4 m/s 752 mmHg 73%
    14:00 +15°C° 0,5 mm 4 m/s 752 mmHg 73%
    15:00 +15°C° 0,9 mm 4 m/s 752 mmHg 75%
    16:00 +15°C° 0,9 mm 4 m/s 752 mmHg 78%
    17:00 +14°C° 0,9 mm 4 m/s 752 mmHg 80%
    18:00 +13°C° 0,8 mm 4 m/s 752 mmHg 84%
    19:00 +13°C° 0,8 mm 4 m/s 752 mmHg 88%
    20:00 +12°C° 0,8 mm 4 m/s 753 mmHg 92%
    21:00 +12°C° 0,5 mm 4 m/s 753 mmHg 92%
    22:00 +11°C° 0,5 mm 3 m/s 753 mmHg 92%
    23:00 +11°C° 0,5 mm 3 m/s 753 mmHg 92%

    22 Fevereiro, Quinta-feira

    Tempo Temperatura Precipitação Vento Pressão Humidade
    00:00 +11°C° 0,3 mm 3 m/s 753 mmHg 92%
    01:00 +11°C° 0,3 mm 3 m/s 753 mmHg 92%
    02:00 +10°C° 0,3 mm 3 m/s 753 mmHg 91%
    03:00 +10°C° 0,1 mm 3 m/s 753 mmHg 89%
    04:00 +10°C° 0,1 mm 3 m/s 753 mmHg 88%
    05:00 +10°C° 0,1 mm 3 m/s 753 mmHg 86%
    06:00 +11°C° 0,1 mm 3 m/s 753 mmHg 83%
    07:00 +11°C° 0,1 mm 3 m/s 753 mmHg 81%
    08:00 +12°C° 0,1 mm 3 m/s 753 mmHg 78%
    09:00 +14°C° 0,1 mm 3 m/s 753 mmHg 70%
    10:00 +17°C° 0,1 mm 3 m/s 753 mmHg 62%
    11:00 +19°C° 0,1 mm 3 m/s 753 mmHg 54%
    12:00 +19°C° 0,2 mm 4 m/s 753 mmHg 54%
    13:00 +19°C° 0,2 mm 4 m/s 752 mmHg 55%
    14:00 +19°C° 0,2 mm 4 m/s 752 mmHg 55%
    15:00 +18°C° 0,4 mm 4 m/s 752 mmHg 61%
    16:00 +18°C° 0,4 mm 4 m/s 752 mmHg 68%
    17:00 +17°C° 0,4 mm 4 m/s 752 mmHg 74%
    18:00 +16°C° 0,6 mm 3 m/s 752 mmHg 79%
    19:00 +14°C° 0,6 mm 3 m/s 753 mmHg 84%
    20:00 +13°C° 0,6 mm 3 m/s 753 mmHg 89%
    21:00 +14°C° 0,2 mm 2 m/s 753 mmHg 89%
    22:00 +13°C° 0,2 mm 2 m/s 754 mmHg 89%
    23:00 +13°C° 0,2 mm 2 m/s 754 mmHg 89%

    23 Fevereiro, Sexta-feira

    Tempo Temperatura Precipitação Vento Pressão Humidade
    00:00 +13°C° 0,1 mm 2 m/s 754 mmHg 89%
    01:00 +13°C° 0,1 mm 2 m/s 754 mmHg 88%
    02:00 +13°C° 0,1 mm 2 m/s 754 mmHg 88%
    03:00 +12°C° 0 mm 2 m/s 754 mmHg 88%
    04:00 +12°C° 0 mm 2 m/s 754 mmHg 87%
    05:00 +12°C° 0 mm 2 m/s 754 mmHg 87%
    06:00 +12°C° 0 mm 2 m/s 754 mmHg 84%
    07:00 +13°C° 0 mm 2 m/s 754 mmHg 81%
    08:00 +14°C° 0 mm 2 m/s 754 mmHg 79%
    09:00 +15°C° 0 mm 2 m/s 754 mmHg 71%
    10:00 +17°C° 0 mm 2 m/s 754 mmHg 63%
    11:00 +19°C° 0 mm 2 m/s 755 mmHg 56%
    12:00 +19°C° 0,1 mm 2 m/s 754 mmHg 55%
    13:00 +19°C° 0,1 mm 2 m/s 754 mmHg 54%
    14:00 +20°C° 0,1 mm 2 m/s 754 mmHg 53%
    15:00 +19°C° 0,2 mm 2 m/s 754 mmHg 58%
    16:00 +18°C° 0,2 mm 2 m/s 754 mmHg 63%
    17:00 +18°C° 0,2 mm 1 m/s 754 mmHg 68%
    18:00 +16°C° 0 mm 1 m/s 755 mmHg 75%
    19:00 +14°C° 0 mm 1 m/s 755 mmHg 82%
    20:00 +13°C° 0 mm 1 m/s 755 mmHg 89%
    21:00 +13°C° 0 mm 1 m/s 756 mmHg 89%
    22:00 +13°C° 0 mm 1 m/s 756 mmHg 90%
    23:00 +12°C° 0 mm 1 m/s 756 mmHg 90%

    24 Fevereiro, Sábado

    Tempo Temperatura Precipitação Vento Pressão Humidade
    00:00 +12°C° 0 mm 1 m/s 756 mmHg 90%
    01:00 +12°C° 0 mm 1 m/s 756 mmHg 89%
    02:00 +12°C° 0 mm 1 m/s 756 mmHg 89%
    03:00 +12°C° 0 mm 2 m/s 756 mmHg 87%
    04:00 +10°C° 0 mm 2 m/s 756 mmHg 85%
    05:00 +10°C° 0 mm 2 m/s 756 mmHg 84%
    06:00 +12°C° 0 mm 2 m/s 756 mmHg 79%
    07:00 +13°C° 0 mm 2 m/s 756 mmHg 75%
    08:00 +14°C° 0 mm 2 m/s 756 mmHg 70%
    09:00 +16°C° 0 mm 2 m/s 756 mmHg 60%
    10:00 +18°C° 0 mm 2 m/s 756 mmHg 50%
    11:00 +20°C° 0 mm 2 m/s 756 mmHg 39%
    12:00 +20°C° 0 mm 3 m/s 755 mmHg 38%
    13:00 +21°C° 0 mm 3 m/s 755 mmHg 37%
    14:00 +22°C° 0 mm 3 m/s 754 mmHg 37%
    15:00 +20°C° 0 mm 3 m/s 754 mmHg 43%
    16:00 +19°C° 0 mm 3 m/s 754 mmHg 50%
    17:00 +18°C° 0 mm 3 m/s 754 mmHg 57%
    18:00 +17°C° 0 mm 3 m/s 754 mmHg 63%
    19:00 +14°C° 0 mm 3 m/s 755 mmHg 68%
    20:00 +13°C° 0 mm 3 m/s 755 mmHg 74%
    21:00 +13°C° 0 mm 3 m/s 755 mmHg 75%
    22:00 +12°C° 0 mm 3 m/s 755 mmHg 75%
    23:00 +12°C° 0 mm 3 m/s 755 mmHg 76%
    Mostrar mais